www.pogodaiklimat.ru

Погода и климат >> Архив погоды >> Франция >> Чарвилл


ПОГОДА в Чарвилле

  • Прогноз погоды в Чарвилле
  • Монитор погоды в Чарвилле

АРХИВ ПОГОДЫ в Чарвилле

Время (UTC), дата Ветер
(напр.,м/с)
 
Видим.   Явления Облачность Т
(С)
Тd
(С)
f
(%)
Тe
(С)
Тes
(С)
Комфортность P
(гПа)
Po
(гПа)
Тmin
(С)
Tmax
(С)
R
(мм)
R24
(мм)
S
(см)
22 9.09 штиль 0 20 км 10/10
[]
+9.3 +7.7 90 +8 +8 1015.4 997.5
23 9.09 В 1 20 км н/о +7.2 +6.3 94 +7 +7 1015.6 997.6
00 10.09 ЮВ 1
{2}
3200 м дымка 8/0
[]
+6.0 +5.4 96 +6 +6 1016.0 997.9 0
01 10.09 В 1 20 км 10/10 1500 м
[]
+6.7 +6.1 96 +7 +7 1016.0 997.9
02 10.09 штиль 0 20 км 10/10 1500 м
[]
+7.9 +6.8 93 +7 +7 1016.1 998.1
03 10.09 В 1
{1}
4300 м дымка 9/0
[]
+7.2 +6.6 96 +7 +7 1016.2 998.1 0
04 10.09 ЮЗ 1 19 км 10/10 1500 м
[]
+6.7 +6.1 96 +7 +7 1016.4 998.3
05 10.09 Ю 1 20 км 10/10
[]
+7.2 +6.8 97 +7 +7 1016.6 998.5
06 10.09 ЮВ 1
{1}
20 км 10/0
[]
+8.0 +7.4 96 +8 +8 1017.0 999.0 +5.5 +12.8 0
07 10.09 В 1 20 км 9/9
[]
+11.8 +7.7 76 +13 +13 1017.7 999.9
08 10.09 В 2 20 км 9/9
[]
+14.2 +7.5 64 +14 +15 1018.0 1000.4
09 10.09 В 1
{4}
19 км н/о +16.7 +7.9 56 +18 +18 1017.9 1000.4 0
10 10.09 СЗ 1 20 км н/о +19.4 +8.7 50 +22 +22 комфорт 1018.1 1000.8
11 10.09 З 1 20 км н/о +19.9 +6.9 43 +22 +22 комфорт 1018.2 1000.9
12 10.09 В 1
{5}
20 км н/о +20.6 +7.2 42 +23 +23 комфорт 1018.2 1000.9 0
13 10.09 С 2 20 км 8/8 2000 м
[]
+19.3 +6.7 44 +21 +23 комфорт 1018.7 1001.3
14 10.09 ЮЗ 1 20 км 8/8
[]
+20.6 +6.9 41 +23 +25 комфорт 1018.5 1001.2
15 10.09 С 2
{7}
20 км н/о +20.0 +7.7 45 +22 +22 комфорт 1018.5 1001.2 0
16 10.09 СЗ 1 20 км н/о +20.9 +6.0 38 +23 +23 комфорт 1018.5 1001.2
17 10.09 СЗ 1 20 км н/о +20.2 +6.5 41 +22 +22 комфорт 1018.8 1001.5
18 10.09 З 1
{4}
20 км н/о +17.0 +7.3 53 +19 +19 1019.7 1002.2 +8.0 +21.4 0
19 10.09 штиль 0 19 км н/о +11.1 +7.8 80 +11 +11 1020.7 1002.8
20 10.09 З 1 20 км н/о +9.1 +6.4 83 +9 +9 1021.6 1003.6
21 10.09 З 1
{1}
20 км н/о +6.9 +5.2 89 +7 +7 1022.4 1004.2 0
22 10.09 штиль 0 19 км н/о +6.3 +5.6 95 +5 +5 1022.6 1004.4
23 10.09 СЗ 1 700 м туман н/о +6.1 +5.5 96 +6 +6 1022.5 1004.3
00 11.09 штиль 0
{1}
18 км н/о +5.3 +4.7 96 +4 +4 1022.7 1004.4 0
01 11.09 штиль 0 8000 м 10/10
[]
+5.5 +5.1 97 +4 +4 1022.9 1004.6
02 11.09 В 1 300 м туман н/о +4.9 +4.5 97 +5 +5 1022.9 1004.6
03 11.09 штиль 0
{1}
20 км 10/0
[]
+5.6 +5.3 98 +4 +4 1023.1 1004.8 0
04 11.09 штиль 0 16 км 10/10
[]
+6.0 +5.6 97 +5 +5 1023.5 1005.2
05 11.09 штиль 0 16 км 10/10
[]
+6.3 +5.9 97 +5 +5 1023.5 1005.3
06 11.09 С 1
{2}
19 км 10/0
[]
+7.5 +6.8 95 +7 +7 1024.0 1005.8 +4.6 +17.0 0
07 11.09 штиль 0 19 км 10/10
[]
+8.5 +7.6 94 +8 +8 1024.4 1006.3
08 11.09 В 1 18 км 9/9
[]
+11.7 +9.1 84 +12 +13 1024.7 1006.8
09 11.09 С 1
{3}
19 км 10/10 1500 м
[]
+13.9 +9.7 76 +15 +15 1024.9 1007.1 0
10 11.09 СВ 1 20 км 10/1 1410 м
[]
+16.0 +11.0 72 +17 +22 1024.7 1007.1
11 11.09 ЮЗ 2 20 км 10/10 1500 м
[]
+17.5 +10.1 62 +18 +18 1024.3 1006.8 0.0
12 11.09 З 2
{7}
20 км 10/10 1500 м
[]
+18.4 +11.0 62 +19 +19 1024.4 1006.9 0.0 0
13 11.09 ЮЗ 2 20 км 10/1 1080 м
[]
+19.5 +10.8 57 +21 +25 комфорт 1024.1 1006.7
14 11.09 З 2 20 км 10/10 1500 м
[]
+19.9 +9.5 51 +22 +22 комфорт 1024.1 1006.7
15 11.09 З 2
{8}
20 км 10/10 1500 м
[]
+19.9 +9.7 52 +22 +22 комфорт 1024.1 1006.7 0
16 11.09 З 2 20 км 10/10 1300 м
[]
+20.1 +9.0 49 +22 +22 комфорт 1024.3 1006.9
17 11.09 З 1 20 км 10/6 1300 м
[]
+20.1 +9.3 50 +23 +23 комфорт 1024.4 1007.0
18 11.09 ЮЗ 1
{4}
20 км 10/10 1000 м
[]
+19.4 +8.1 48 +22 +22 комфорт 1024.4 1007.0 +7.5 +20.6 0
19 11.09 ЮВ 1 20 км 9/4 1260 м
[]
+14.6 +10.2 75 +16 +16 1025.4 1007.7
20 11.09 В 1 20 км 10/10 1470 м
[]
+14.6 +11.2 80 +16 +16 1025.6 1007.9
21 11.09 ЮЗ 1
{2}
20 км 10/10 1000 м
[]
+15.2 +11.4 78 +16 +16 1026.2 1008.5 0
22 11.09 З 1 20 км 10/10 1140 м
[]
+15.1 +11.9 81 +16 +16 1026.3 1008.6
23 11.09 З 2 19 км слаб. дождь 10/10 500 м
[]
+17.0 +13.7 81 +17 +17 1026.7 1009.1 0.0
00 12.09 ЮЗ 1
{6}
20 км 10/10 300 м
[]
+16.1 +14.3 89 +17 +17 1026.9 1009.3 0.0 0
01 12.09 В 1 20 км 10/10 240 м
[]
+15.5 +14.4 93 +17 +17 1027.4 1009.7
02 12.09 ЮЗ 1 16 км 10/10 400 м
[]
+16.5 +15.2 92 +17 +17 1027.3 1009.7
03 12.09 ЮЗ 1
{5}
20 км 10/10 300 м
[]
+16.7 +14.9 89 +18 +18 1027.3 1009.7 0
04 12.09 ЮЗ 1 20 км 10/10 300 м
[]
+16.6 +15.0 90 +18 +18 1027.5 1009.9
05 12.09 ЮЗ 1 20 км 10/10 240 м
[]
+16.5 +15.4 93 +17 +17 1028.0 1010.4
06 12.09 ЮЗ 1
{6}
8000 м 10/10 300 м
[]
+16.6 +15.5 93 +17 +17 1028.5 1010.9 +14.0 +19.4 0.0 0
07 12.09 ЮЗ 2 4100 м дымка 10/10 300 м
[]
+17.2 +15.9 92 +18 +18 1029.0 1011.4 0.0
08 12.09 ЮЗ 2 19 км 10/10 400 м
[]
+17.6 +15.9 90 +18 +18 1029.6 1012.0 0.2
09 12.09 ЮЗ 2
{8}
20 км 9/9 300 м
[]
+18.8 +16.0 84 +20 +21 1030.1 1012.6 0.2 0
10 12.09 З 2 20 км 10/10 400 м
[]
+19.5 +16.2 81 +22 +22 комфорт 1030.6 1013.1
11 12.09 З 2 20 км 9/9 540 м
[]
+19.9 +16.3 80 +23 +24 комфорт 1030.7 1013.2 0.2
12 12.09 З 2
{8}
20 км 8/8 600 м
[]
+21.4 +15.9 71 +25 +27 комфорт 1030.4 1013.0 0.2 0
13 12.09 З 2 20 км н/о +23.0 +14.6 59 +27 +27 душно 1030.2 1012.9
14 12.09 З 3 20 км 8/8 1140 м
[]
+23.2 +14.2 57 +27 +28 душно 1030.1 1012.8
15 12.09 З 3
{8}
20 км 10/10 1000 м
[]
+22.5 +14.9 62 +26 +26 жарко 1030.2 1012.9 0
16 12.09 З 2 20 км 10/10 800 м
[]
+21.1 +16.1 73 +24 +24 комфорт 1030.4 1013.0
17 12.09 З 1 20 км 10/10 1050 м
[]
+20.6 +15.8 74 +25 +25 комфорт 1030.7 1013.3
18 12.09 ЮЗ 2
{4}
20 км 10/10 1000 м
[]
+20.0 +15.8 77 +23 +23 комфорт 1031.1 1013.6 +16.5 +24.1 0
19 12.09 З 1 20 км 10/10 870 м
[]
+19.2 +16.1 82 +22 +22 комфорт 1031.4 1013.9
20 12.09 Ю 1 20 км н/о +15.4 +13.9 91 +17 +17 1031.7 1013.9
21 12.09 В 1
{2}
500 м туман н/о +14.1 +13.6 97 +15 +15 1031.8 1013.9 0
22 12.09 З 1 6000 м н/о +13.1 +12.8 98 +14 +14 1031.8 1013.9
23 12.09 З 1 20 км 10/10 300 м
[]
+14.3 +14.0 98 +15 +15 1031.8 1014.0
00 13.09 В 1
{1}
17 км 9/9 600 м
[]
+14.2 +13.7 97 +15 +15 1031.9 1014.0 0
01 13.09 штиль 0 800 м туман н/о +13.9 +13.3 96 +13 +13 1031.8 1013.9
02 13.09 штиль 0 5000 м 8/8 480 м
[]
+12.2 +11.6 96 +12 +12 1031.8 1013.8
03 13.09 штиль 0
{1}
20 км 10/10 300 м
[]
+13.2 +12.9 98 +13 +13 1031.8 1013.9 0
04 13.09 З 1 20 км 10/10 400 м
[]
+14.3 +14.0 98 +15 +15 1031.7 1013.9
05 13.09 СЗ 1 20 км 10/10 360 м
[]
+16.0 +14.7 92 +17 +17 1031.8 1014.1
06 13.09 СЗ 1
{3}
20 км 10/10 300 м
[]
+16.1 +14.8 92 +17 +17 1032.2 1014.5 +12.2 +20.0 0
07 13.09 ЮЗ 1 20 км 10/10 600 м
[]
+16.6 +15.0 90 +18 +18 1032.7 1015.0
08 13.09 СЗ 1 20 км 10/10 570 м
[]
+17.3 +14.6 84 +18 +18 1033.2 1015.5
09 13.09 З 1
{3}
20 км 10/10 600 м
[]
+18.1 +14.2 78 +20 +20 1033.3 1015.7 0
10 13.09 З 1 20 км 10/10 500 м
[]
+18.7 +14.6 77 +21 +21 комфорт 1033.2 1015.6
11 13.09 СЗ 1 20 км 10/10 570 м
[]
+19.0 +14.7 76 +21 +21 комфорт 1033.3 1015.7
12 13.09 З 1
{5}
20 км 10/10 600 м
[]
+20.2 +15.0 72 +24 +24 комфорт 1033.0 1015.5 0
13 13.09 СЗ 2 20 км 10/10 700 м
[]
+19.8 +15.2 75 +23 +23 комфорт 1032.8 1015.3
14 13.09 СЗ 2 20 км 10/10 720 м
[]
+19.5 +15.4 77 +22 +22 комфорт 1033.1 1015.6
15 13.09 С 1
{6}
20 км 10/10 600 м
[]
+20.1 +15.7 76 +24 +25 комфорт 1032.7 1015.2 0
16 13.09 В 1 20 км н/о +21.2 +15.3 69 +24 +24 комфорт 1032.3 1014.9
17 13.09 З 1 20 км н/о +21.2 +15.1 68 +24 +24 комфорт 1032.2 1014.8
18 13.09 ЮЗ 1
{3}
20 км н/о +17.8 +14.7 82 +19 +19 1032.7 1015.1 +16.1 +22.1 0
19 13.09 СЗ 1 3400 м дымка н/о +15.0 +14.0 94 +16 +16 1033.0 1015.2
20 13.09 ЮЗ 1 4100 м дымка н/о +12.8 +12.2 96 +14 +14 1033.2 1015.2
21 13.09 З 1
{2}
20 км н/о +12.7 +12.1 96 +13 +13 1033.4 1015.4 0
22 13.09 З 1 20 км н/о +11.8 +11.2 96 +12 +12 1033.5 1015.5
23 13.09 СЗ 1 14 км н/о +11.6 +11.3 98 +11 +11 1033.6 1015.5
00 14.09 Ю 1
{5}
3400 м дымка н/о +11.0 +10.2 95 +11 +11 1033.5 1015.4 0
01 14.09 З 1 1700 м дымка н/о +9.6 +9.1 97 +10 +10 1033.5 1015.3
02 14.09 СЗ 1 900 м туман ?/? +8.0 +7.6 97 +8 +8 1033.2 1014.9
03 14.09 СЗ 1
{2}
800 м туман ?/? +8.3 +8.0 98 +8 +8 1032.9 1014.6 0
04 14.09 З 1 2500 м дымка ?/? +7.5 +7.2 98 +7 +7 1032.7 1014.4
05 14.09 штиль 0 500 м туман н/о +6.1 +5.8 98 +5 +5 1033.4 1015.0
06 14.09 З 1
{2}
н/о н/о +7.2 +6.9 98 +7 +7 1033.5 1015.1 +6.0 +17.8 0
07 14.09 штиль 0 16 км н/о +13.0 +12.7 98 +12 +12 1032.7 1014.8
08 14.09 Ю 1 20 км н/о +17.0 +12.9 77 +19 +19 1032.5 1014.8
09 14.09 Ю 1
{3}
20 км н/о +19.9 +13.4 66 +23 +23 комфорт 1032.0 1014.5 0
10 14.09 В 1 20 км н/о +21.7 +12.8 57 +24 +24 комфорт 1031.7 1014.3
11 14.09 В 1 20 км н/о +22.8 +12.4 52 +26 +26 жарко 1030.7 1013.4
12 14.09 С 2
{6}
20 км н/о +23.5 +12.2 49 +25 +25 комфорт 1030.0 1012.7 0
13 14.09 СВ 2 20 км н/о +24.2 +11.2 44 +26 +26 жарко 1029.3 1012.1
14 14.09 СВ 1 20 км н/о +24.8 +11.7 44 +26 +26 жарко 1028.7 1011.5
15 14.09 СВ 2
{6}
20 км н/о +24.7 +12.0 45 +26 +26 жарко 1028.0 1010.8 0
16 14.09 СВ 2 20 км н/о +24.2 +11.2 44 +26 +26 жарко 1027.6 1010.4
17 14.09 СВ 1 20 км н/о +23.0 +10.8 46 +25 +25 комфорт 1027.4 1010.1
18 14.09 З 1
{5}
20 км н/о +19.2 +11.2 60 +22 +22 комфорт 1027.9 1010.4 +7.2 +25.2 0
19 14.09 З 1 20 км н/о +15.3 +10.7 74 +17 +17 1028.3 1010.6
20 14.09 штиль 0 20 км н/о +12.9 +9.7 81 +12 +12 1028.2 1010.3
21 14.09 СЗ 1
{2}
20 км н/о +11.7 +9.6 87 +12 +12 1028.1 1010.1 0
22 14.09 СЗ 1 20 км н/о +10.5 +8.8 89 +11 +11 1028.1 1010.1
23 14.09 В 1 18 км н/о +7.7 +6.9 95 +8 +8 1027.9 1009.7
00 15.09 З 1
{2}
1900 м дымка н/о +7.5 +6.8 95 +7 +7 1027.4 1009.2 0
01 15.09 ЮЗ 1 19 км н/о +7.0 +6.4 96 +7 +7 1027.4 1009.1
02 15.09 СЗ 1 14 км н/о +6.7 +6.3 97 +7 +7 1027.1 1008.8
03 15.09 ЮВ 1
{1}
400 м туман н/о +5.2 +4.6 96 +5 +5 1026.8 1008.4 0
04 15.09 штиль 0 2300 м дымка н/о +5.1 +4.7 97 +4 +4 1026.6 1008.2
05 15.09 штиль 0 900 м туман н/о +5.2 +4.9 98 +4 +4 1026.7 1008.3
06 15.09 штиль 0
{1}
16 км н/о +5.6 +5.3 98 +4 +4 1026.9 1008.5 +4.5 +19.2 0
07 15.09 СЗ 1 19 км н/о +9.5 +8.6 94 +10 +10 1026.4 1008.3
08 15.09 ЮВ 1 20 км н/о +14.9 +11.3 79 +16 +16 1025.9 1008.2
09 15.09 СВ 1
{3}
20 км н/о +18.2 +12.6 70 +20 +20 1025.7 1008.2 0
10 15.09 ЮВ 1 20 км н/о +21.8 +12.9 57 +24 +24 комфорт 1025.1 1007.8
11 15.09 СЗ 1 20 км н/о +23.7 +12.3 49 +26 +26 жарко 1024.7 1007.5
12 15.09 ЮЗ 1
{6}
20 км н/о +24.8 +12.4 46 +27 +27 жарко 1024.0 1006.9 0
13 15.09 З 1 20 км н/о +26.1 +11.4 40 +27 +27 жарко 1023.3 1006.3
14 15.09 СЗ 1 20 км н/о +26.4 +10.9 38 +27 +27 жарко 1022.5 1005.5
15 15.09 З 2
{6}
20 км н/о +26.0 +9.8 36 +27 +27 жарко 1021.9 1004.9 0
16 15.09 З 2 20 км н/о +25.9 +10.1 37 +27 +27 жарко 1021.6 1004.6
17 15.09 З 2 20 км н/о +24.4 +9.5 39 +25 +25 комфорт 1021.7 1004.6
18 15.09 З 1
{4}
20 км н/о +19.5 +9.7 53 +22 +22 комфорт 1022.1 1004.7 +5.6 +26.5 0
19 15.09 СЗ 1 20 км н/о +14.6 +9.4 71 +16 +16 1023.0 1005.3
20 15.09 З 1 20 км н/о +11.4 +9.1 86 +12 +12 1023.3 1005.4
21 15.09 З 1
{2}
20 км н/о +10.1 +7.9 86 +11 +11 1023.3 1005.3 0
22 15.09 штиль 0 4900 м дымка н/о +8.2 +7.1 93 +7 +7 1023.5 1005.4
23 15.09 штиль 0 7000 м н/о +7.1 +6.2 94 +6 +6 1023.4 1005.2
00 16.09 штиль 0
{2}
19 км н/о +7.0 +6.4 96 +6 +6 1023.4 1005.2 0
01 16.09 СЗ 1 20 км н/о +6.0 +5.4 96 +6 +6 1023.2 1004.9
02 16.09 СВ 1 300 м туман ?/? +4.7 +4.1 96 +4 +4 1023.0 1004.7
03 16.09 В 1
{2}
16 км н/о +5.3 +5.0 98 +5 +5 1022.7 1004.4 0
04 16.09 штиль 0 13 км 10/10
[]
+5.1 +4.7 97 +4 +4 1022.5 1004.2
05 16.09 штиль 0 17 км 9/9
[]
+5.8 +5.4 97 +5 +5 1022.4 1004.1
06 16.09 штиль 0
{2}
13 км 10/0
[]
+6.8 +6.4 97 +6 +6 1022.3 1004.1 +4.6 +19.3 0
07 16.09 штиль 0 19 км 9/9
[]
+9.1 +8.5 96 +8 +8 1022.3 1004.3
08 16.09 ЮВ 1 20 км 10/10
[]
+13.4 +10.7 84 +14 +14 1021.9 1004.2
09 16.09 СЗ 1
{2}
19 км 9/0
[]
+16.5 +11.6 73 +18 +19 1021.9 1004.3 0
10 16.09 В 1 20 км 10/10
[]
+20.5 +11.9 58 +24 +24 комфорт 1021.2 1003.9
11 16.09 З 1 20 км 9/9
[]
+23.1 +10.8 46 +25 +26 комфорт 1020.6 1003.5
12 16.09 З 2
{6}
20 км н/о +24.3 +4.6 28 +24 +24 комфорт 1020.0 1002.9 0
13 16.09 З 2 20 км 10/10
[]
+25.3 +8.3 34 +26 +26 жарко 1019.4 1002.4
14 16.09 СЗ 3 20 км 10/10
[]
+25.3 +10.3 39 +26 +26 жарко 1019.2 1002.2
15 16.09 СЗ 3
{10}
20 км 10/0
[]
+23.6 +12.3 49 +25 +25 комфорт 1019.3 1002.2 0
16 16.09 СЗ 3 20 км 10/3 1320 м
[]
+23.0 +14.0 57 +26 +27 жарко 1019.2 1002.1
17 16.09 С 3 20 км 10/4 1110 м
[]
+21.5 +14.9 66 +25 +25 комфорт 1019.3 1002.1
18 16.09 СЗ 2
{8}
20 км 10/10 1000 м
[]
+20.2 +14.3 69 +23 +23 комфорт 1019.7 1002.4 +6.8 +25.6 0
19 16.09 С 1 20 км 10/10 1500 м
[]
+19.2 +14.5 74 +22 +22 комфорт 1020.0 1002.7
20 16.09 С 2 18 км 10/5 600 м
[]
+18.3 +15.0 81 +19 +19 1020.4 1003.0
21 16.09 С 1
{8}
20 км 10/10 300 м
[]
+17.6 +14.9 84 +19 +19 1020.5 1003.1 0
22 16.09 С 1 20 км 10/10 600 м
[]
+17.3 +14.6 84 +18 +18 1020.9 1003.4

 

Местоположение метеостанции Чарвилл (Франция): широта 49.78 долгота 4.63 высота над уровнем моря 148 м.

В архиве по умолчанию представлена погода в Чарвилле за последнюю неделю. Архивные данные за месяц целиком и за предыдущие месяцы, начиная с января 2011 года, Вы можете получить, выбрав интересующий диапазон дат из раскрывающегося списка и нажав кнопку "Ввод!".


*Определитесь, кто Вы:
робот инопланетянин человек

Внимание! Время в таблицах - всемирное. Для получения местного времени необходимо прибавить поправку, которая равна 1 ч.

Смотрите также архив погоды в соседних городах и на ближайших метеорологических станциях:

Погода в Дурбе (Бельгия) (36 км)
Погода во Флорене (Бельгия) (50 км)
Погода в Сент-Губерте (Бельгия) (62 км)
Погода в Гумане (Бельгия) (64 км)
Погода в Бюзеноле (Бельгия) (71 км)
Погода в Реймс аэропорту (Франция) (73 км)
Погода в Шарлеруа (Бельгия) (78 км)
Погода в Эрнаже (Бельгия) (99 км)
Погода в Сен-Кантене (Франция) (103 км)
Погода в Шьевре (Бельгия) (105 км)

Пояснения к столбцам:

Ветер - указаны скорость ветра в м/с - средняя за 10 мин, порывы в срок и между сроками (в фигурных скобках) и направление, откуда дует ветер: С - северный, СВ - северо-восточный, В - восточный, ЮВ - юго-восточный, Ю - южный, ЮЗ - юго-западный, З - западный, СЗ - северо-западный.
Видимость - горизонтальная дальность видимости в метрах или километрах. При видимости от 1 до 10 км при отсутствии осадков обычно наблюдается дымка, при ухудшении видимости до 1 км и менее - туман. В сухую погоду видимость может ухудшаться дымом, пылью или мглою.
Явления - указаны атмосферные явления, наблюдавшиеся в срок или в последний час перед сроком; фигурными скобками обозначены явления, наблюдавшиеся между сроками (за 1-3 часа до срока); квадратными скобками обозначены град или гололедные отложения с указанием их диаметра в мм.
Облачность - указаны через наклонную черту общая и нижняя облачность в баллах и высота нижней границы облаков в метрах; квадратными скобками обозначены формы облаков: Ci - перистые, Cs - перисто-слоистые, Cc - перисто-кучевые, Ac - высококучевые, As - высокослоистые, Sc - слоисто-кучевые, Ns - слоисто-дождевые, Cu - кучевые, Cb - кучево-дождевые. Подробнее классификацию облаков см. в Атласе облаков (PDF).
T - Температура воздуха - температура, измеренная на высоте 2 м над землей.
Td - Температура точки росы - температура, при понижении до которой содержащийся в воздухе водяной пар достигнет насыщения.
f - Относительная влажность воздуха - влажноcть воздуха, измеренная на высоте 2 м над землей.
Te - Эффективная температура - температура, которую ощущает одетый по сезону человек в тени. Характеристика душности погоды. При расчете учитывается влияние влажности воздуха и скорости ветра на теплоощущения человека.
Tes - Эффективная температура на солнце - температура, которую ощущает человек, с поправкой на солнечный нагрев. Характеристика знойности погоды. Зависит от высоты солнца над горизонтом, облачности и скорости ветра. Ночью, в пасмурную погоду, а также при ветре 12 м/с и более поправка равна нулю.
P - Атмосферное давление - приведенное к уровню моря атмосферное давление.
Po - Атмосферное давление - измеренное на уровне метеостанции атмосферное давление.
Tmin - Минимальная температура - минимум температуры воздуха на высоте 2 м над землей.
Tmax - Максимальная температура - максимум температуры воздуха на высоте 2 м над землей.
R - Количество осадков - Количество выпавших осадков за период времени, мм. При наведении курсора мыши на число - период времени, за который выпало указанное количество осадков.
R24 - Количество осадков - Количество выпавших осадков за 24 часа, мм.
S - Снежный покров - Высота снежного покрова, см. При наведении курсора мыши на число - состояние снежного покрова и степень покрытия местности в баллах.